TimeEST,TemperatureF,Dew PointF,Humidity,Sea Level PressureIn,VisibilityMPH,Wind Direction,Wind SpeedMPH,Gust SpeedMPH,PrecipitationIn,Events,Conditions,WindDirDegrees,DateUTC
1:53 AM,24.1,21.0,88,30.34,4.0,ESE,3.5,-,N/A,,Clear,120,2012-12-14 06:53:00
2:01 AM,24.8,19.4,80,30.32,1.8,ESE,3.5,-,N/A,,Clear,120,2012-12-14 07:01:00
2:12 AM,24.8,19.4,80,30.32,2.5,Calm,Calm,-,N/A,,Clear,0,2012-12-14 07:12:00
2:20 AM,24.8,19.4,80,30.32,4.0,Calm,Calm,-,N/A,,Haze,0,2012-12-14 07:20:00
2:53 AM,24.1,19.9,84,30.35,4.0,SSE,3.5,-,N/A,,Clear,150,2012-12-14 07:53:00
3:53 AM,23.0,19.0,85,30.34,4.0,Calm,Calm,-,N/A,,Clear,0,2012-12-14 08:53:00
4:53 AM,23.0,19.0,85,30.35,5.0,Calm,Calm,-,N/A,,Clear,0,2012-12-14 09:53:00
5:53 AM,21.9,18.0,85,30.38,5.0,Calm,Calm,-,N/A,,Clear,0,2012-12-14 10:53:00
6:53 AM,21.9,19.0,89,30.38,6.0,Calm,Calm,-,N/A,,Clear,0,2012-12-14 11:53:00
7:53 AM,21.9,18.0,85,30.37,6.0,Calm,Calm,-,N/A,,Clear,0,2012-12-14 12:53:00
8:53 AM,28.0,24.1,85,30.38,10.0,Calm,Calm,-,N/A,,Clear,0,2012-12-14 13:53:00
9:53 AM,36.0,28.9,76,30.38,10.0,South,4.6,-,N/A,,Clear,170,2012-12-14 14:53:00
10:53 AM,42.1,30.9,65,30.38,-9999.0,SSW,5.8,-,N/A,,Clear,200,2012-12-14 15:53:00
11:53 AM,46.0,28.9,51,30.37,10.0,West,10.4,-,N/A,,Clear,260,2012-12-14 16:53:00
12:53 PM,48.0,28.0,46,30.34,10.0,SW,5.8,-,N/A,,Clear,230,2012-12-14 17:53:00
1:53 PM,50.0,25.0,38,30.32,10.0,SSW,3.5,-,N/A,,Clear,200,2012-12-14 18:53:00
2:53 PM,51.1,21.9,32,30.29,10.0,SSW,4.6,-,N/A,,Clear,200,2012-12-14 19:53:00
3:53 PM,52.0,21.9,31,30.28,10.0,Calm,Calm,-,N/A,,Clear,0,2012-12-14 20:53:00
4:53 PM,48.9,21.0,33,30.28,-9999.0,South,4.6,-,N/A,,Clear,180,2012-12-14 21:53:00
5:53 PM,45.0,23.0,42,30.27,-9999.0,Calm,Calm,-,N/A,,Clear,0,2012-12-14 22:53:00
6:53 PM,39.0,26.1,60,30.28,-9999.0,Calm,Calm,-,N/A,,Clear,0,2012-12-14 23:53:00
7:53 PM,37.0,24.1,59,30.28,-9999.0,Calm,Calm,-,N/A,,Clear,0,2012-12-15 00:53:00
8:53 PM,34.0,25.0,70,30.30,-9999.0,Calm,Calm,-,N/A,,Clear,0,2012-12-15 01:53:00
9:53 PM,34.0,26.1,73,30.28,-9999.0,Calm,Calm,-,N/A,,Clear,0,2012-12-15 02:53:00
10:53 PM,33.1,26.1,75,30.27,-9999.0,Calm,Calm,-,N/A,,Clear,0,2012-12-15 03:53:00
11:53 PM,33.1,27.0,78,30.25,-9999.0,North,-9999.0,-,N/A,,Clear,0,2012-12-15 04:53:00